星链-2005 (STARLINK-2005 )

导读 | 豆包AI

STARLINK-2005是美国SpaceX星链星座的一员,于2021年2月4日发射入轨。星链星座旨在构建全球卫星互联网,为偏远地区等提供宽带服务。这颗卫星加入后进一步扩充了星链的组网规模,推进其全球覆盖的建设进程,是SpaceX打造低轨巨型星座计划中的一颗组网卫星。

基本信息
目录编号:
47600
目录名称:
STARLINK-2005
国际标识:
2021-009BE
轨道中心:
EARTH
卫星名称:
星链-2005
卫星全名:
星链-2005 (STARLINK-2005 )
卫星状态:
已陨落 最后检测时间 2025-03-15
发射日期:
2021-02-04 UTC
国别 :
美国 (US)
星等 :
--
轨道信息
数据来源 国际轨道数据
星历时间: 2025-03-15T13:35:25+0800
轨道信息已过期411天
半长轴: 6516.687km
偏心率: 0.0003224
轨道倾角: 53.021°
近地点辐角 313.928°
升交点赤经 124.861°
平近点角 161.369°
近地点: 136.451km
远地点: 140.653km
周期: 87.257分钟
每日圈数: 16.502986
详细信息
固有亮度:
5
最大亮度:
2.5
卫星平台:
Starlink V1.0
覆盖范围:
全球
运营商:
太空探索技术公司
运营商所在国:
美国
制造商(研发单位):
太空探索技术公司
制造商所在国:
美国
使用方式:
暂无
卫星简介
星链(Starlink)计划是由太空探索技术公司(SpaceX)提出的一个巨型低轨卫星互联网星座项目,计划在2019年至2024年间在太空搭建由约1.2万颗卫星组成的“星链”网络,其中1584颗将部署在地球上空550千米处的近地轨道,并从2020年开始工作。该卫星仍在工作。